Waarnemingen

Advertentie
Mijn weer
Hyeres, Frankrijk (7667): temperatuur & dauwpunt: 19.04.2019 16:00:00 - 25.04.2019 16:00:00 (CEST)Hyeres, Frankrijk (7667): temperatuur 5cm: 19.04.2019 16:00:00 - 25.04.2019 16:00:00 (CEST)Hyeres, Frankrijk (7667): windsnelheid & windstoten: 19.04.2019 16:00:00 - 25.04.2019 16:00:00 (CEST)Hyeres, Frankrijk (7667): windrichting: 19.04.2019 16:00:00 - 25.04.2019 16:00:00 (CEST)Hyeres, Frankrijk (7667): luchtdruk: 19.04.2019 16:00:00 - 25.04.2019 16:00:00 (CEST)Hyeres, Frankrijk (7667): zicht: 19.04.2019 16:00:00 - 25.04.2019 16:00:00 (CEST)Hyeres, Frankrijk (7667): neerslag: 19.04.2019 16:00:00 - 25.04.2019 16:00:00 (CEST)
Datum & Tijd tt [°C] td [°C] tt 5cm [°C] ff [km/u] ff [kn] fx [km/u] fx [kn] dd ppp [hPa] vv [km] rr [mm]
25.04.2019 16:00:00 - - - - - - - - - - -
25.04.2019 15:00:00 15,6 13,3 16,4 23 12 40 21 O 1017,1 18 0,0
25.04.2019 14:00:00 16,4 13,3 18,9 24 13 42 23 O 1017,2 16 0,0
25.04.2019 13:00:00 16,6 13,5 18,6 24 13 42 23 O 1017,4 16 0,0
25.04.2019 12:00:00 16,0 13,3 15,9 24 13 42 23 O 1017,7 16 0,0
25.04.2019 11:00:00 15,2 12,9 14,4 22 12 41 22 O 1017,4 17 0,0
25.04.2019 10:00:00 14,6 12,8 14,4 23 12 43 23 O 1016,9 16 0,0
25.04.2019 09:00:00 14,7 12,7 14,0 23 12 40 22 O 1016,6 16 0,0
25.04.2019 08:00:00 14,2 12,4 13,7 25 14 40 22 O 1016,0 16 0,0
25.04.2019 07:00:00 14,3 13,0 13,7 21 11 33 18 O 1015,9 13 0,0
25.04.2019 06:00:00 14,5 13,2 13,7 18 10 29 16 O 1015,8 11 0,0
25.04.2019 05:00:00 14,4 13,1 13,4 16 9 34 18 OZO 1016,3 10 0,0
25.04.2019 04:00:00 14,5 13,4 13,4 14 8 27 15 OZO 1016,6 9 0,2
25.04.2019 03:00:00 14,3 13,3 12,5 17 9 28 15 OZO 1016,5 9 0,0
25.04.2019 02:00:00 14,3 12,8 12,4 10 5 18 10 OZO 1016,9 10 0,0
25.04.2019 01:00:00 14,3 12,7 12,6 12 7 20 11 ZO 1016,8 11 0,0
25.04.2019 00:00:00 14,3 12,5 12,0 12 6 18 10 ZO 1016,2 12 0,0
24.04.2019 23:00:00 14,2 13,1 12,2 11 6 20 11 ZO 1015,9 10 0,0
24.04.2019 22:00:00 14,5 13,2 12,4 12 7 20 11 ZO 1015,5 10 0,0
24.04.2019 21:00:00 14,4 12,6 12,8 11 6 22 12 OZO 1014,8 14 0,0
24.04.2019 20:00:00 15,2 12,3 15,1 13 7 22 12 OZO 1014,3 15 0,0
24.04.2019 19:00:00 16,5 9,7 18,1 11 6 26 14 ZZO 1014,3 20 0,0
24.04.2019 18:00:00 17,4 10,3 21,7 14 8 30 16 Z 1013,8 18 0,0
24.04.2019 17:00:00 17,3 12,6 20,6 19 10 47 25 Z 1013,4 13 0,0
24.04.2019 16:00:00 17,7 13,4 20,2 27 15 40 22 Z 1013,0 15 0,0
24.04.2019 15:00:00 17,4 13,9 19,8 24 13 42 23 ZZO 1013,2 14 0,0
24.04.2019 14:00:00 16,3 13,8 15,5 26 14 45 24 ZZO 1012,7 17 0,0
24.04.2019 13:00:00 15,4 13,2 14,0 28 15 46 25 ZZO 1012,1 17 0,0
24.04.2019 12:00:00 14,7 13,1 13,5 26 14 45 25 ZZO 1011,8 16 0,6
24.04.2019 11:00:00 14,5 13,2 13,3 23 12 42 23 ZZO 1011,2 14 0,6
24.04.2019 10:00:00 14,3 13,3 13,1 25 13 39 21 ZZO 1010,4 3,3 2,5
24.04.2019 09:00:00 14,3 13,0 13,1 14 8 45 25 ZZO 1009,7 5 1,6
24.04.2019 08:00:00 14,8 13,5 13,5 27 15 46 25 Z 1009,3 4,2 1,8
24.04.2019 07:00:00 15,3 13,5 13,7 20 11 34 19 ZZO 1008,2 6 0,4
24.04.2019 06:00:00 15,5 13,3 14,2 17 9 27 15 ZZO 1007,8 9 0,0
24.04.2019 05:00:00 15,3 13,7 14,3 20 11 36 19 ZO 1007,5 7 0,0
24.04.2019 04:00:00 15,2 13,9 14,1 18 10 31 17 OZO 1007,2 6 0,0
24.04.2019 03:00:00 14,9 13,6 13,8 16 9 27 15 O 1006,8 9 0,0
24.04.2019 02:00:00 14,8 13,5 13,3 16 8 27 14 O 1006,7 11 0,0
24.04.2019 01:00:00 14,5 13,2 13,2 16 9 28 15 O 1006,4 20 0,0
24.04.2019 00:00:00 14,5 12,9 13,2 16 9 29 16 O 1006,2 50 0,0
23.04.2019 23:00:00 14,6 12,6 13,4 16 9 29 16 O 1005,5 60 0,0
23.04.2019 22:00:00 14,5 12,9 13,0 14 8 25 13 O 1004,8 58 0,0
23.04.2019 21:00:00 14,4 12,8 13,0 16 9 31 17 O 1003,6 60 0,2
23.04.2019 20:00:00 14,7 12,7 13,8 17 9 32 18 OZO 1002,7 19 0,0
23.04.2019 19:00:00 14,9 12,8 14,0 19 10 36 19 O 1001,9 43 0,0
23.04.2019 18:00:00 15,0 12,7 14,4 21 11 32 17 O 1001,3 20 0,0
23.04.2019 17:00:00 16,1 13,0 15,7 17 9 35 19 ONO 1000,5 60 0,0
23.04.2019 16:00:00 16,2 12,7 15,7 22 12 39 21 ONO 1000,1 59 0,0
23.04.2019 15:00:00 15,3 12,4 14,2 22 12 43 23 ONO 999,9 51 0,0
23.04.2019 14:00:00 14,5 12,7 14,1 28 15 51 27 O 999,9 17 0,0
23.04.2019 13:00:00 15,3 12,4 15,1 32 17 55 30 O 999,7 20 0,0
23.04.2019 12:00:00 15,2 12,5 14,1 35 19 56 30 O 999,6 19 0,0
23.04.2019 11:00:00 14,9 12,4 13,5 30 16 57 31 O 999,2 16 0,0
23.04.2019 10:00:00 14,5 12,0 12,5 28 15 48 26 O 999,0 20 1,2
23.04.2019 09:00:00 13,9 12,1 12,4 28 15 49 26 O 998,7 5 1,2
23.04.2019 08:00:00 14,8 11,4 12,6 24 13 46 25 ONO 998,2 19 0,0
23.04.2019 07:00:00 15,4 9,7 14,2 24 13 42 23 ONO 997,9 60 0,0
23.04.2019 06:00:00 15,6 9,3 13,8 26 14 50 27 ONO 997,9 60 0,0
23.04.2019 05:00:00 15,5 8,9 13,6 26 14 46 25 ONO 998,7 20 0,0
23.04.2019 04:00:00 15,5 8,7 13,1 29 16 56 30 ONO 999,1 60 0,0
23.04.2019 03:00:00 15,2 8,9 14,0 22 12 59 32 ONO 999,3 60 0,0
23.04.2019 02:00:00 15,9 8,9 14,1 35 19 61 33 ONO 1000,1 58 0,0
23.04.2019 01:00:00 16,9 9,3 14,1 33 18 68 37 ONO 1000,3 47 0,0
23.04.2019 00:00:00 17,3 9,2 15,3 44 24 74 40 O 1000,3 45 0,0
22.04.2019 23:00:00 17,3 9,2 16,1 41 22 78 42 ONO 1001,1 32 0,0
22.04.2019 22:00:00 18,1 8,4 16,3 42 23 84 46 O 1001,2 36 0,0
22.04.2019 21:00:00 18,2 7,6 16,3 42 23 83 45 O 1000,7 34 0,0
22.04.2019 20:00:00 18,2 6,7 16,5 45 24 91 49 ONO 1000,4 37 0,0
22.04.2019 19:00:00 18,2 7,3 16,7 41 22 90 49 ONO 1000,5 20 0,0
22.04.2019 18:00:00 19,1 6,9 18,4 48 26 93 50 O 1000,5 20 0,0
22.04.2019 17:00:00 19,7 6,4 19,0 48 26 104 56 ONO 1000,7 19 0,0
22.04.2019 16:00:00 19,8 7,5 19,8 51 27 85 46 O 1001,0 18 0,0
22.04.2019 15:00:00 21,0 7,6 20,8 48 26 81 44 O 1001,6 18 0,0
22.04.2019 14:00:00 20,7 6,6 22,7 50 27 86 47 O 1001,5 18 0,0
22.04.2019 13:00:00 21,1 5,4 22,4 54 29 90 48 O 1002,3 17 0,0
22.04.2019 12:00:00 20,9 5,7 22,3 54 29 85 46 O 1002,8 18 0,0
22.04.2019 11:00:00 21,1 4,6 21,5 49 26 82 44 O 1003,0 18 0,0
22.04.2019 10:00:00 21,2 4,7 19,5 49 26 76 41 O 1002,7 19 0,0
22.04.2019 09:00:00 19,9 5,2 18,1 46 25 86 46 O 1003,2 19 0,0
22.04.2019 08:00:00 19,4 5,1 16,8 44 24 77 42 O 1003,4 28 0,0
22.04.2019 07:00:00 18,6 6,1 16,3 45 25 78 42 O 1004,2 33 0,0
22.04.2019 06:00:00 18,4 7,5 16,5 43 23 78 42 O 1004,6 20 0,0
22.04.2019 05:00:00 18,2 7,9 16,1 44 24 75 40 O 1005,2 32 0,0
22.04.2019 04:00:00 18,0 8,3 15,6 38 21 67 36 O 1006,1 32 0,0
22.04.2019 03:00:00 17,9 8,2 15,9 33 18 61 33 O 1007,3 32 0,0
22.04.2019 02:00:00 18,3 7,1 16,2 36 19 65 35 O 1008,3 38 0,0
22.04.2019 01:00:00 18,4 6,6 16,1 37 20 70 38 O 1009,3 38 0,0
22.04.2019 00:00:00 17,9 6,7 15,8 42 23 72 39 O 1010,1 37 0,0
21.04.2019 23:00:00 18,3 6,5 16,5 35 19 69 38 O 1010,3 38 0,0
21.04.2019 22:00:00 18,6 5,1 16,3 36 19 64 35 O 1010,9 45 0,0
21.04.2019 21:00:00 18,7 4,8 16,6 34 18 59 32 ONO 1011,0 48 0,0
21.04.2019 20:00:00 18,6 5,1 17,1 29 16 58 32 ONO 1011,1 46 0,0
21.04.2019 19:00:00 18,9 5,0 18,0 36 19 64 35 O 1011,8 20 0,0
21.04.2019 18:00:00 19,1 6,2 18,7 37 20 61 33 O 1012,6 44 0,0
21.04.2019 17:00:00 19,5 6,6 19,8 39 21 61 33 O 1013,2 59 0,0
21.04.2019 16:00:00 19,3 6,7 18,6 34 19 56 30 O 1013,7 60 0,0
21.04.2019 15:00:00 19,0 7,1 17,8 31 17 52 28 O 1014,2 55 0,0
21.04.2019 14:00:00 19,2 6,6 17,9 29 16 56 30 O 1014,7 60 0,0
21.04.2019 13:00:00 18,8 6,9 17,5 32 17 58 31 O 1015,4 60 0,0
21.04.2019 12:00:00 18,7 6,8 17,4 35 19 58 31 O 1015,8 54 0,0
21.04.2019 11:00:00 18,2 6,7 16,9 35 19 64 35 O 1016,2 38 0,0
21.04.2019 10:00:00 18,3 7,4 17,1 37 20 66 36 O 1016,0 33 0,0
21.04.2019 09:00:00 18,8 6,9 17,0 27 14 47 25 O 1016,0 48 0,0
21.04.2019 08:00:00 18,5 7,3 16,6 27 14 45 25 O 1016,2 46 0,0
21.04.2019 07:00:00 18,4 7,2 16,4 26 14 47 26 O 1016,2 39 0,0
21.04.2019 06:00:00 19,1 6,2 15,7 22 12 43 23 ONO 1016,3 51 0,0
21.04.2019 05:00:00 18,1 7,2 15,8 9 5 42 23 ONO 1017,0 52 0,0
21.04.2019 04:00:00 17,3 8,7 15,5 22 12 51 27 O 1017,8 33 0,0
21.04.2019 03:00:00 17,8 7,8 15,7 29 15 47 25 O 1018,4 36 0,0
21.04.2019 02:00:00 17,7 8,3 14,6 23 13 44 24 ONO 1019,4 42 0,0
21.04.2019 01:00:00 17,4 9,3 15,3 13 7 32 17 O 1019,8 44 0,0
21.04.2019 00:00:00 18,6 7,1 16,0 16 9 32 17 ONO 1019,7 50 0,0
20.04.2019 23:00:00 18,2 6,4 15,6 15 8 28 15 NO 1020,0 49 0,0
20.04.2019 22:00:00 18,5 5,0 15,4 19 11 31 17 NO 1020,0 54 0,0
20.04.2019 21:00:00 17,6 5,5 15,5 16 8 27 15 NO 1020,1 51 0,0
20.04.2019 20:00:00 18,1 4,3 15,7 14 7 35 19 NO 1020,4 60 0,0
20.04.2019 19:00:00 17,9 5,1 16,1 16 9 42 23 ONO 1020,6 58 0,0
20.04.2019 18:00:00 17,6 6,8 16,8 25 13 45 24 O 1020,9 43 0,0
20.04.2019 17:00:00 18,1 6,6 17,9 29 15 59 32 O 1021,5 50 0,0
20.04.2019 16:00:00 18,6 5,1 18,4 37 20 61 33 O 1022,2 42 0,0
20.04.2019 15:00:00 18,8 6,3 20,1 32 17 63 34 O 1022,9 20 0,0
20.04.2019 14:00:00 19,5 5,9 20,9 36 20 72 39 O 1023,2 20 0,0
20.04.2019 13:00:00 20,1 7,5 23,7 27 15 45 25 O 1023,5 20 0,0
20.04.2019 12:00:00 19,7 7,7 21,4 28 15 51 28 O 1024,0 39 0,0
20.04.2019 11:00:00 19,3 6,7 20,8 27 15 41 22 O 1024,4 20 0,0
20.04.2019 10:00:00 19,2 7,3 18,9 22 12 36 19 ONO 1024,5 53 0,0
20.04.2019 09:00:00 18,0 6,8 15,0 19 11 31 17 NO 1024,5 60 0,0
20.04.2019 08:00:00 15,8 6,5 9,2 17 9 24 13 NNO 1024,7 60 0,0
20.04.2019 07:00:00 13,5 4,9 8,8 13 7 23 12 NO 1024,4 58 0,0
20.04.2019 06:00:00 14,5 4,8 10,1 13 7 24 13 ONO 1024,3 57 0,0
20.04.2019 05:00:00 14,3 6,1 5,5 13 7 22 12 ONO 1024,6 51 0,0
20.04.2019 04:00:00 10,4 5,4 6,1 8 5 14 8 N 1024,6 42 0,0
20.04.2019 03:00:00 12,6 5,5 5,8 11 6 14 7 N 1024,8 50 0,0
20.04.2019 02:00:00 13,3 5,4 7,7 10 5 17 9 N 1025,2 48 0,0
20.04.2019 01:00:00 11,9 5,5 6,6 13 7 18 10 N 1025,5 43 0,0
20.04.2019 00:00:00 12,1 5,9 6,5 11 6 16 9 N 1026,0 42 0,0
19.04.2019 23:00:00 12,6 5,7 7,0 8 4 16 8 N 1026,3 45 0,0
19.04.2019 22:00:00 14,2 6,3 8,5 10 6 14 8 NNO 1026,5 55 0,0
19.04.2019 21:00:00 15,5 7,0 10,8 8 4 24 13 NO 1026,2 53 0,0
19.04.2019 20:00:00 17,0 7,1 14,7 16 9 33 18 O 1025,8 50 0,0
19.04.2019 19:00:00 17,6 8,7 17,3 19 10 35 19 ONO 1025,7 48 0,0
19.04.2019 18:00:00 18,8 8,2 20,1 24 13 42 23 O 1025,7 26 0,0
19.04.2019 17:00:00 19,1 8,4 21,7 28 15 48 26 O 1025,9 20 0,0
19.04.2019 16:00:00 19,3 8,0 22,7 29 16 54 29 O 1026,0 22 0,0

tt = temperatuur
td = dauwpunt
tt 5cm = temperatuur 5cm
ff = windsnelheid
fx = windstoten
dd = windrichting
ppp = luchtdruk
vv = zicht
rr = neerslag

Weerstations in de omgeving